Location: Charbonni�res
(45.9952°N, 2.9982°E)
Time: 17:42:45
(UTC+00:00)

Cosmos 1844 Rocket - Pass Details

Date: 29 November 2020
Orbit: 824 x 845 km, 71.0° (Epoch: 23 January)

Event Time Altitude Azimuth Distance (km) Brightness Sun altitude
Rises 05:52:04 0° 219° (SW) 3,377 5.6 -12.7°
Reaches altitude 10° 05:54:33 10° 224° (SW) 2,449 4.9 -12.3°
Maximum altitude 06:00:02 54° 301° (WNW) 1,023 2.8 -11.4°
Drops below altitude 10° 06:05:36 10° 19° (NNE) 2,474 5.1 -10.5°
Sets 06:08:08 0° 24° (NNE) 3,414 5.9 -10.1°
